GW4780 Weather Reports


time (UTC)temp
F
wind
direction
speed
knots
gust
knots
rain 1hr
in
rain 24hr
in
rain mn
in
humidity
%
barometer
mb
20260508071504 52 88 0.0 0.9 0.00 0.00 0.00 85 1016.8
20260508071004 51 89 0.9 1.7 0.00 0.00 0.00 86 1016.8
20260508070716 51 89 0.0 1.7 0.00 0.00 0.00 86 1016.7
20260508070005 51 91 0.0 2.6 0.00 0.00 0.00 87 1016.6
20260508065503 50 97 0.0 2.6 0.00 0.00 0.00 88 1016.5
20260508065003 50 103 0.0 1.7 0.00 0.00 0.00 88 1016.5
20260508064503 50 103 0.0 0.9 0.00 0.00 0.00 89 1016.6
20260508064003 50 103 0.0 0.9 0.00 0.00 0.00 89 1016.5
20260508063504 50 103 0.0 1.7 0.00 0.00 0.00 89 1016.5
20260508063217 49 103 0.0 1.7 0.00 0.00 0.00 89 1016.4
20260508062718 49 104 0.0 1.7 0.00 0.00 0.00 89 1016.3
20260508062004 49 105 0.0 0.9 0.00 0.00 0.00 89 1016.4
20260508061503 49 105 0.0 0.9 0.00 0.00 0.00 89 1016.4
20260508061004 49 105 0.0 0.9 0.00 0.00 0.00 89 1016.3
20260508060505 49 105 0.0 0.9 0.00 0.00 0.00 89 1016.2
20260508060217 49 0 0.0 0.0 0.00 0.00 0.00 89 1016.2
20260508055503 48 0 0.0 0.0 0.00 0.00 0.00 89 1016.1
20260508055003 48 0 0.0 0.0 0.00 0.00 0.00 89 1016.1
20260508054503 48 0 0.0 0.0 0.00 0.00 0.00 89 1016.1
20260508054219 48 0 0.0 0.0 0.00 0.00 0.00 89 1016.1
20260508053504 48 0 0.0 0.0 0.00 0.00 0.00 89 1016.1
20260508053219 48 0 0.0 0.0 0.00 0.00 0.00 89 1016.1
20260508052504 48 0 0.0 0.0 0.00 0.00 0.00 89 1016.1
20260508052004 48 105 0.0 0.9 0.00 0.00 0.00 89 1016.0
20260508051503 48 105 0.0 0.9 0.00 0.00 0.00 89 1016.0
20260508051003 48 0 0.0 0.0 0.00 0.00 0.00 89 1015.9
20260508050503 48 0 0.0 0.0 0.00 0.00 0.00 89 1015.9
20260508050003 48 105 0.0 0.9 0.00 0.00 0.00 89 1015.8
20260508045504 48 105 0.9 1.7 0.00 0.00 0.00 89 1015.7
20260508045217 48 105 0.9 1.7 0.00 0.00 0.00 89 1015.7
20260508044503 48 105 0.0 0.9 0.00 0.00 0.00 88 1015.7
20260508044004 48 0 0.0 0.0 0.00 0.00 0.00 88 1015.6
20260508043504 48 0 0.0 0.0 0.00 0.00 0.00 87 1015.6
20260508043003 48 0 0.0 0.0 0.00 0.00 0.00 88 1015.8
20260508042503 48 0 0.0 0.0 0.00 0.00 0.00 88 1015.8
20260508042003 48 0 0.0 0.0 0.00 0.00 0.00 87 1015.7
20260508041504 48 105 0.0 0.9 0.00 0.00 0.00 87 1015.6
20260508041003 48 105 0.0 0.9 0.00 0.00 0.00 87 1015.5
20260508040720 48 105 0.0 0.9 0.00 0.00 0.00 87 1015.5
20260508040005 48 105 0.0 0.9 0.00 0.00 0.00 87 1015.5
20260508035503 48 105 0.0 0.9 0.00 0.00 0.00 87 1015.6
20260508035216 48 105 0.0 0.9 0.00 0.00 0.00 87 1015.5
20260508034719 49 105 0.0 1.7 0.00 0.00 0.00 87 1015.6
20260508034004 49 105 0.0 1.7 0.00 0.00 0.00 86 1015.5
20260508033504 49 105 0.0 0.9 0.00 0.00 0.00 86 1015.6
20260508033004 49 105 0.0 0.9 0.00 0.00 0.00 86 1015.6
20260508032504 49 105 0.0 0.9 0.00 0.00 0.00 86 1015.5
20260508032004 49 105 0.0 0.9 0.00 0.00 0.00 86 1015.6
20260508031504 49 105 0.0 0.9 0.00 0.00 0.00 86 1015.7
20260508031003 49 105 0.0 0.9 0.00 0.00 0.00 85 1015.7
20260508030717 49 105 0.0 0.9 0.00 0.00 0.00 85 1015.5
20260508030003 49 105 0.0 0.9 0.00 0.00 0.00 85 1015.6
20260508025504 49 105 0.0 0.9 0.00 0.00 0.00 85 1015.5
20260508025004 49 105 0.0 0.9 0.00 0.00 0.00 85 1015.4
20260508024503 49 105 0.0 0.9 0.00 0.00 0.00 85 1015.5
20260508024003 49 105 0.0 0.9 0.00 0.00 0.00 85 1015.5
20260508023717 49 105 0.0 1.7 0.00 0.00 0.00 85 1015.6
20260508023003 49 105 0.0 1.7 0.00 0.00 0.00 85 1015.5
20260508022504 49 105 0.0 0.9 0.00 0.00 0.00 84 1015.6
20260508022218 49 105 0.0 1.7 0.00 0.00 0.00 84 1015.5
20260508021504 49 105 0.0 1.7 0.00 0.00 0.00 84 1015.5
20260508021004 49 105 0.0 1.7 0.00 0.00 0.00 84 1015.5
20260508020504 50 105 0.0 1.7 0.00 0.00 0.00 84 1015.4
20260508020003 50 105 0.0 1.7 0.00 0.00 0.00 83 1015.3
20260508015504 50 105 0.0 0.9 0.00 0.00 0.00 83 1015.4
20260508015217 50 105 0.0 0.9 0.00 0.00 0.00 83 1015.4
20260508014504 50 105 0.0 0.9 0.00 0.00 0.00 82 1015.3
20260508014004 50 105 0.0 1.7 0.00 0.00 0.00 82 1015.3
20260508013503 50 93 0.0 2.6 0.00 0.00 0.00 82 1015.3
20260508013003 50 117 0.0 2.6 0.00 0.00 0.00 82 1015.3
20260508012503 50 154 0.0 2.6 0.00 0.00 0.00 82 1015.2
20260508012217 50 157 0.9 2.6 0.00 0.00 0.00 82 1015.2
20260508011503 50 151 0.9 1.7 0.00 0.00 0.00 82 1015.2
20260508011003 50 136 0.0 1.7 0.00 0.00 0.00 82 1015.3
20260508010716 50 133 0.0 1.7 0.00 0.00 0.00 82 1015.2
20260508010003 50 124 0.0 0.9 0.00 0.00 0.00 81 1015.2
20260508005504 50 124 0.0 1.7 0.00 0.00 0.00 81 1015.3
20260508005004 50 124 0.0 1.7 0.00 0.00 0.00 81 1015.3
20260508004503 51 124 0.0 1.7 0.00 0.00 0.00 80 1015.3
20260508004003 51 124 0.0 1.7 0.00 0.00 0.00 80 1015.3
20260508003718 51 125 0.0 1.7 0.00 0.00 0.00 80 1015.3
20260508003217 51 129 0.0 0.9 0.00 0.00 0.00 80 1015.4
20260508002503 51 172 0.9 1.7 0.00 0.00 0.00 79 1015.4
20260508002003 51 197 0.9 2.6 0.00 0.00 0.00 79 1015.4
20260508001503 51 184 0.0 2.6 0.00 0.00 0.00 79 1015.4
20260508001003 51 148 0.9 3.5 0.00 0.00 0.00 79 1015.5
20260508000504 51 147 0.9 3.5 0.00 0.00 0.00 79 1015.5
20260508000004 51 161 1.7 5.2 0.00 0.00 0.00 79 1015.5
20260507235718 51 166 1.7 5.2 0.00 0.00 0.00 79 1015.6
20260507235004 51 176 0.9 5.2 0.00 0.00 0.00 79 1015.6
20260507234718 51 175 0.9 5.2 0.00 0.00 0.00 79 1015.6
20260507234003 51 166 1.7 4.3 0.00 0.00 0.00 78 1015.5
20260507233718 51 168 1.7 4.3 0.00 0.00 0.00 78 1015.5
20260507233004 52 187 0.9 3.5 0.00 0.00 0.00 78 1015.6
20260507232503 52 174 0.9 3.5 0.00 0.00 0.00 77 1015.6
20260507232003 52 164 0.9 3.5 0.00 0.00 0.00 77 1015.5
20260507231503 52 168 1.7 5.2 0.00 0.00 0.00 77 1015.6
20260507231004 52 169 2.6 6.1 0.00 0.00 0.00 77 1015.5
20260507230503 52 170 2.6 7.0 0.00 0.00 0.00 76 1015.6
20260507230005 52 171 2.6 7.0 0.00 0.00 0.00 76 1015.6
20260507225719 52 172 2.6 5.2 0.00 0.00 0.00 76 1015.6
20260507225216 52 173 2.6 5.2 0.00 0.00 0.00 76 1015.7
20260507224504 52 163 2.6 8.7 0.00 0.00 0.00 76 1015.8
20260507224216 52 164 2.6 8.7 0.00 0.00 0.00 76 1015.8
20260507223504 52 162 1.7 4.3 0.00 0.00 0.00 75 1015.7
20260507223003 52 155 1.7 6.1 0.00 0.00 0.00 75 1015.7
20260507222504 52 150 1.7 6.1 0.00 0.00 0.00 75 1015.7
20260507222003 53 145 1.7 5.2 0.00 0.00 0.00 74 1015.6
20260507221717 53 156 1.7 5.2 0.00 0.00 0.00 74 1015.6
20260507221003 53 157 2.6 7.0 0.00 0.00 0.00 74 1015.7
20260507220504 53 152 2.6 7.0 0.00 0.00 0.00 73 1015.6
20260507220003 53 158 2.6 6.1 0.00 0.00 0.00 73 1015.6
20260507215504 53 158 2.6 6.1 0.00 0.00 0.00 72 1015.6
20260507215004 53 160 2.6 8.7 0.00 0.00 0.00 72 1015.6
20260507214504 53 160 2.6 8.7 0.00 0.00 0.00 72 1015.7
20260507214003 53 151 1.7 5.2 0.00 0.00 0.00 71 1015.7
20260507213503 53 141 1.7 5.2 0.00 0.00 0.00 71 1015.6
20260507213003 53 136 1.7 7.8 0.00 0.00 0.00 71 1015.6
20260507212503 53 134 1.7 7.8 0.00 0.00 0.00 71 1015.6
20260507212003 53 120 0.9 4.3 0.00 0.00 0.00 70 1015.5
20260507211503 53 94 0.9 2.6 0.00 0.00 0.00 70 1015.5
20260507211004 53 88 0.9 2.6 0.00 0.00 0.00 70 1015.4
20260507210503 53 84 0.9 2.6 0.00 0.00 0.00 70 1015.4
20260507210003 53 90 0.9 3.5 0.00 0.00 0.00 69 1015.3
20260507205504 54 91 0.9 3.5 0.00 0.00 0.00 69 1015.4
20260507205003 54 91 0.9 3.5 0.00 0.00 0.00 69 1015.3
20260507204719 54 93 0.9 3.5 0.00 0.00 0.00 69 1015.3
20260507204003 54 84 0.9 2.6 0.00 0.00 0.00 68 1015.2
20260507203504 54 92 0.9 3.5 0.00 0.00 0.00 68 1015.3
20260507203003 54 89 0.9 4.3 0.00 0.00 0.00 67 1015.2
20260507202503 54 97 0.9 4.3 0.00 0.00 0.00 67 1015.2
20260507202220 54 101 0.9 4.3 0.00 0.00 0.00 67 1015.1
20260507201503 54 84 0.9 2.6 0.00 0.00 0.00 66 1015.1
20260507201217 54 83 0.9 2.6 0.00 0.00 0.00 66 1015.1
20260507200504 54 96 1.7 5.2 0.00 0.00 0.00 65 1015.0
20260507200003 54 82 0.9 4.3 0.00 0.00 0.00 65 1014.9
20260507195503 55 91 0.9 4.3 0.00 0.00 0.00 65 1014.9
20260507195004 55 101 0.9 6.1 0.00 0.00 0.00 64 1014.8
20260507194503 55 105 0.9 6.1 0.00 0.00 0.00 64 1014.9
20260507194003 55 115 0.9 5.2 0.00 0.00 0.00 64 1014.8
20260507193504 55 108 0.9 5.2 0.00 0.00 0.00 63 1014.8
20260507193003 55 86 0.9 2.6 0.00 0.00 0.00 63 1014.8
20260507192503 55 118 0.9 4.3 0.00 0.00 0.00 62 1014.8
20260507192003 56 137 0.9 4.3 0.00 0.00 0.00 62 1014.8
20260507191503 56 114 0.9 3.5 0.00 0.00 0.00 61 1014.8
20260507191003 56 119 1.7 4.3 0.00 0.00 0.00 60 1014.7
20260507190503 56 130 1.7 5.2 0.00 0.00 0.00 60 1014.7
20260507190005 56 128 1.7 5.2 0.00 0.00 0.00 59 1014.6
20260507185503 56 126 1.7 4.3 0.00 0.00 0.00 59 1014.7
20260507185003 56 140 1.7 4.3 0.00 0.00 0.00 58 1014.7
20260507184718 56 136 1.7 4.3 0.00 0.00 0.00 58 1014.7
20260507184003 57 119 1.7 4.3 0.00 0.00 0.00 58 1014.6
20260507183504 57 137 1.7 6.1 0.00 0.00 0.00 57 1014.5
20260507183003 57 126 1.7 6.1 0.00 0.00 0.00 57 1014.5
20260507182718 57 128 1.7 5.2 0.00 0.00 0.00 57 1014.6
20260507182003 57 128 1.7 5.2 0.00 0.00 0.00 57 1014.5
20260507181503 57 126 1.7 5.2 0.00 0.00 0.00 56 1014.4
20260507181003 58 129 1.7 5.2 0.00 0.00 0.00 55 1014.3
20260507180503 58 139 1.7 4.3 0.00 0.00 0.00 54 1014.4
20260507180004 58 143 1.7 4.3 0.00 0.00 0.00 54 1014.4
20260507175504 58 144 1.7 4.3 0.00 0.00 0.00 53 1014.4
20260507175004 58 148 1.7 5.2 0.00 0.00 0.00 53 1014.4
20260507174717 58 144 1.7 5.2 0.00 0.00 0.00 53 1014.3
20260507174004 59 149 1.7 6.1 0.00 0.00 0.00 54 1014.4
20260507173503 59 161 2.6 7.0 0.00 0.00 0.00 53 1014.4
20260507173004 59 169 2.6 7.0 0.00 0.00 0.00 52 1014.4
20260507172503 59 170 3.5 7.8 0.00 0.00 0.00 52 1014.4
20260507172003 59 158 2.6 7.8 0.00 0.00 0.00 51 1014.3
20260507171504 59 147 1.7 5.2 0.00 0.00 0.00 51 1014.4
20260507171004 59 128 1.7 5.2 0.00 0.00 0.00 52 1014.4
20260507170504 59 91 1.7 5.2 0.00 0.00 0.00 51 1014.4
20260507170003 59 92 1.7 7.0 0.00 0.00 0.00 51 1014.4
20260507165503 59 87 1.7 7.0 0.00 0.00 0.00 51 1014.4
20260507165004 59 98 1.7 5.2 0.00 0.00 0.00 51 1014.4
20260507164504 60 107 1.7 5.2 0.00 0.00 0.00 49 1014.4
20260507164003 60 99 1.7 5.2 0.00 0.00 0.00 50 1014.5
20260507163503 60 138 2.6 7.8 0.00 0.00 0.00 48 1014.4
20260507163003 60 155 3.5 7.8 0.00 0.00 0.00 50 1014.4
20260507162504 59 146 2.6 7.0 0.00 0.00 0.00 48 1014.4
20260507162003 60 117 2.6 6.1 0.00 0.00 0.00 50 1014.4
20260507161504 60 112 2.6 7.0 0.00 0.00 0.00 50 1014.4
20260507161003 60 109 2.6 7.8 0.00 0.00 0.00 50 1014.4
20260507160504 60 103 2.6 7.8 0.00 0.00 0.00 51 1014.4
20260507160003 60 95 1.7 7.0 0.00 0.00 0.00 51 1014.4
20260507155503 59 112 1.7 7.0 0.00 0.00 0.00 52 1014.5
20260507155003 59 148 2.6 6.1 0.00 0.00 0.00 52 1014.6
20260507154503 59 157 2.6 6.1 0.00 0.00 0.00 52 1014.7
20260507154005 59 129 1.7 5.2 0.00 0.00 0.00 52 1014.7
20260507153504 58 126 1.7 6.1 0.00 0.00 0.00 53 1014.8
20260507153003 58 144 2.6 7.0 0.00 0.00 0.00 53 1014.8
20260507152504 59 140 2.6 7.0 0.00 0.00 0.00 53 1014.8
20260507152004 59 141 2.6 7.0 0.00 0.00 0.00 53 1014.8
20260507151503 59 141 2.6 7.0 0.00 0.00 0.00 52 1014.9
20260507151003 59 136 2.6 7.8 0.00 0.00 0.00 53 1014.9
20260507150503 59 123 2.6 7.8 0.00 0.00 0.00 53 1015.0
20260507150005 59 139 2.6 7.0 0.00 0.00 0.00 52 1014.9
20260507145504 59 160 2.6 5.2 0.00 0.00 0.00 51 1014.9
20260507145003 59 169 2.6 6.1 0.00 0.00 0.00 53 1014.9
20260507144718 59 165 2.6 6.1 0.00 0.00 0.00 52 1014.9
20260507144003 59 146 1.7 5.2 0.00 0.00 0.00 52 1014.9
20260507143503 59 144 1.7 5.2 0.00 0.00 0.00 53 1015.0
20260507143219 59 149 1.7 5.2 0.00 0.00 0.00 52 1015.0
20260507142504 59 137 1.7 6.1 0.00 0.00 0.00 52 1015.0
20260507142003 59 126 1.7 6.1 0.00 0.00 0.00 52 1015.0
20260507141503 59 151 1.7 5.2 0.00 0.00 0.00 52 1015.1
20260507141004 59 161 2.6 5.2 0.00 0.00 0.00 51 1015.1
20260507140503 59 164 2.6 5.2 0.00 0.00 0.00 51 1015.2
20260507140005 59 155 2.6 5.2 0.00 0.00 0.00 51 1015.2
20260507135503 59 155 2.6 5.2 0.00 0.00 0.00 50 1015.2
20260507135003 60 169 3.5 6.1 0.00 0.00 0.00 50 1015.2
20260507134503 60 170 3.5 7.0 0.00 0.00 0.00 50 1015.2
20260507134003 60 165 2.6 7.0 0.00 0.00 0.00 52 1015.2
20260507133718 60 160 2.6 7.0 0.00 0.00 0.00 52 1015.2
20260507133004 60 161 2.6 7.0 0.00 0.00 0.00 51 1015.3
20260507132503 60 160 2.6 7.0 0.00 0.00 0.00 51 1015.2
20260507132003 60 146 2.6 7.0 0.00 0.00 0.00 50 1015.2
20260507131504 61 166 3.5 8.7 0.00 0.00 0.00 49 1015.4
20260507131003 62 173 4.3 9.6 0.00 0.00 0.00 50 1015.3
20260507130504 62 168 3.5 9.6 0.00 0.00 0.00 49 1015.3
20260507130005 63 181 4.3 9.6 0.00 0.00 0.00 50 1015.3
20260507125504 62 184 4.3 8.7 0.00 0.00 0.00 48 1015.3
20260507125004 62 172 2.6 8.7 0.00 0.00 0.00 50 1015.3
20260507124503 61 171 2.6 7.0 0.00 0.00 0.00 52 1015.3
20260507124003 61 173 3.5 8.7 0.00 0.00 0.00 51 1015.3
20260507123503 61 179 2.6 8.7 0.00 0.00 0.00 52 1015.3
20260507123003 61 181 1.7 5.2 0.00 0.00 0.00 52 1015.2
20260507122504 61 175 1.7 6.1 0.00 0.00 0.00 52 1015.3
20260507122004 61 180 3.5 7.0 0.00 0.00 0.00 51 1015.3
20260507121503 61 168 3.5 7.8 0.00 0.00 0.00 51 1015.4
20260507121003 62 133 2.6 7.8 0.00 0.00 0.00 48 1015.4
20260507120503 61 161 2.6 7.0 0.00 0.00 0.00 53 1015.3
20260507120004 62 189 3.5 7.8 0.00 0.00 0.00 51 1015.5
20260507115503 62 180 3.5 7.8 0.00 0.00 0.00 52 1015.6
20260507115004 61 151 2.6 7.8 0.00 0.00 0.00 54 1015.6
20260507114503 61 146 2.6 5.2 0.00 0.00 0.00 56 1015.6
20260507114003 61 168 3.5 7.8 0.00 0.00 0.00 56 1015.6
20260507113504 60 174 3.5 7.8 0.00 0.00 0.00 54 1015.6
20260507113218 60 181 2.6 7.8 0.00 0.00 0.00 54 1015.6
20260507112503 60 166 2.6 7.8 0.00 0.00 0.00 54 1015.7
20260507112003 60 154 2.6 7.8 0.00 0.00 0.00 56 1015.7
20260507111506 60 167 2.6 7.0 0.00 0.00 0.00 56 1015.7
20260507111004 60 167 3.5 7.8 0.00 0.00 0.00 57 1015.8
20260507110504 60 158 3.5 7.8 0.00 0.00 0.00 55 1015.7
20260507110005 60 120 2.6 7.8 0.00 0.00 0.00 57 1015.7
20260507105504 59 125 2.6 7.8 0.00 0.00 0.00 59 1015.7
20260507105003 58 163 2.6 5.2 0.00 0.00 0.00 60 1015.8
20260507104503 58 168 2.6 5.2 0.00 0.00 0.00 61 1015.8
20260507104003 58 169 3.5 7.8 0.00 0.00 0.00 60 1015.9
20260507103503 58 162 3.5 7.8 0.00 0.00 0.00 60 1015.9
20260507103003 58 129 2.6 7.0 0.00 0.00 0.00 60 1016.0
20260507102503 58 145 2.6 7.0 0.00 0.00 0.00 62 1016.0
20260507102006 57 164 3.5 7.0 0.00 0.00 0.00 62 1016.0
20260507101717 57 164 3.5 7.0 0.00 0.00 0.00 62 1016.0
20260507101003 57 149 2.6 8.7 0.00 0.00 0.00 62 1016.1
20260507100504 56 143 3.5 8.7 0.00 0.00 0.00 64 1016.2
20260507100003 56 139 2.6 7.0 0.00 0.00 0.00 64 1016.0
20260507095503 56 154 2.6 6.1 0.00 0.00 0.00 66 1016.1
20260507095003 55 163 2.6 6.1 0.00 0.00 0.00 66 1016.1
20260507094504 55 160 2.6 6.1 0.00 0.00 0.00 68 1016.1
20260507094218 55 156 2.6 6.1 0.00 0.00 0.00 68 1016.2
20260507093504 55 157 1.7 5.2 0.00 0.00 0.00 69 1016.2
20260507093004 54 148 2.6 6.1 0.00 0.00 0.00 69 1016.2
20260507092503 54 155 2.6 7.0 0.00 0.00 0.00 70 1016.2
20260507092219 54 163 3.5 7.8 0.00 0.00 0.00 70 1016.2
20260507091503 54 177 3.5 8.7 0.00 0.00 0.00 71 1016.2
20260507091003 54 173 2.6 8.7 0.00 0.00 0.00 71 1016.2
20260507090504 53 173 2.6 6.1 0.00 0.00 0.00 71 1016.2
20260507090217 53 171 2.6 6.1 0.00 0.00 0.00 72 1016.2
20260507085503 53 160 2.6 8.7 0.00 0.00 0.00 72 1016.3
20260507085003 53 161 2.6 8.7 0.00 0.00 0.00 72 1016.3
20260507084504 53 163 2.6 6.1 0.00 0.00 0.00 72 1016.3
20260507084217 53 165 2.6 6.1 0.00 0.00 0.00 72 1016.3
20260507083503 53 134 2.6 5.2 0.00 0.00 0.00 73 1016.2
20260507083004 52 123 1.7 5.2 0.00 0.00 0.00 74 1016.2
20260507082718 52 139 1.7 6.1 0.00 0.00 0.00 74 1016.2
20260507082004 52 151 1.7 6.1 0.00 0.00 0.00 76 1016.3
20260507081504 51 151 1.7 5.2 0.00 0.00 0.00 76 1016.3
20260507081003 50 155 1.7 5.2 0.00 0.00 0.00 78 1016.3
20260507080503 50 159 1.7 5.2 0.00 0.00 0.00 81 1016.3
20260507080005 49 149 1.7 4.3 0.00 0.00 0.00 84 1016.3
20260507075503 48 134 1.7 3.5 0.00 0.00 0.00 87 1016.3
20260507075003 46 109 0.9 3.5 0.00 0.00 0.00 89 1016.2
20260507074503 45 88 0.0 2.6 0.00 0.00 0.00 91 1016.3
20260507074003 45 134 0.9 2.6 0.00 0.00 0.00 92 1016.2
20260507073718 44 170 0.0 1.7 0.00 0.00 0.00 92 1016.1
20260507073003 44 153 0.9 3.5 0.00 0.00 0.00 93 1016.2
20260507072503 43 129 0.9 3.5 0.00 0.00 0.00 94 1016.2
20260507072004 43 88 0.9 2.6 0.00 0.00 0.00 95 1016.2
20260507071718 42 84 0.9 2.6 0.00 0.00 0.00 95 1016.1